Regional Weather Roundup
Issued by NWS

Home | Current Version | Previous Version | Graphics & Text | Print | Product List | Glossary On
Versions: 1 2 3 4 5 6 7 8 9 10 11 12 13 14 15 16 17 18 19 20 21 22 23 24 25 26 27 28 29 30 31 32 33 34 35 36 37 38 39 40 41 42 43 44 45 46 47 48 49 50
547
ASUS43 KFSD 272102
RWRSD

WEATHER ROUNDUP FOR SOUTH DAKOTA
NATIONAL WEATHER SERVICE SIOUX FALLS SD
400 PM CDT THU JUL 27 2017

NOTE: "FAIR" INDICATES FEW OR NO CLOUDS BELOW 12,000 FEET WITH NO
SIGNIFICANT WEATHER AND/OR OBSTRUCTIONS TO VISIBILITY.


SDZ001>005-009-010-012>017-272200-
NORTHWEST AND NORTH CENTRAL SOUTH DAKOTA

CITY           SKY/WX    TMP DP  RH WIND       PRES   REMARKS
BUFFALO          N/A     71  54  54 S10G23    30.08R
FAITH            N/A     83  50  31 SE17      30.08R
MOBRIDGE       SUNNY     84  61  45 S9        30.05F
$$

SDZ012>016-024>037-041>051-057-063-072>074-272200-
SOUTHWEST AND SOUTH CENTRAL SOUTH DAKOTA

CITY           SKY/WX    TMP DP  RH WIND       PRES   REMARKS
RAPID CTY ARPT PTSUNNY   76  52  43 S23G31    30.11F
PIERRE         PTSUNNY   88  54  31 E10G21    30.05F
CUSTER         PTSUNNY   64  50  60 E9G30     30.21F
ELLSWORTH AFB  CLOUDY    77  53  42 S26G33    30.09F
PHILIP         LGT RAIN  84  54  35 S14       30.07F
PINE RIDGE     CLOUDY    73  56  54 E13       30.11F
SPEARFISH      RAIN      64  61  88 E24G30    30.06R
WINNER         FAIR      86  58  38 S9        30.10F
$$

SDZ004>011-016>023-039-040-272200-
NORTHEAST SOUTH DAKOTA

CITY           SKY/WX    TMP DP  RH WIND       PRES   REMARKS
ABERDEEN       SUNNY     83  59  44 NE7       30.09F
WATERTOWN      PTSUNNY   79  58  48 E5        30.10F
BROOKINGS      SUNNY     80  59  48 VRB5      30.10F
SISSETON         N/A     81  60  48 NE6       30.08F
$$

SDZ017-020-022-023-036>040-048>070-272200-
SOUTHEAST SOUTH DAKOTA

CITY           SKY/WX    TMP DP  RH WIND       PRES   REMARKS
SIOUX FALLS    MOSUNNY   83  63  50 N12       30.08F
HURON          SUNNY     83  60  45 E7        30.07F
CHAMBERLAIN    MOSUNNY   84  57  40 CALM      30.09F
MITCHELL       SUNNY     83  61  47 CALM      30.08F
YANKTON        MOSUNNY   82  60  47 E6        30.07F
$$

ABBREVIATIONS USED IN REMARKS
   TC - TEMPERATURE IN CELSIUS
  WCI - WIND CHILL INDEX
   HX - HEAT INDEX
  VSB - VISIBILITY





USA.gov is the U.S. government's official web portal to all federal, state and local government web resources and services.